Volver al catálogo

ARIANE 42P+ DEB

LostHEO
NORAD 34186·DEBRIS·🇫🇷 France

Lanzado Oct 28, 1992 desde Guiana Space Centre

Loading…

Próximos Pases (próximas 24 horas)

TLE

ObsoletoSource: Space-Track

Época: Feb 25, 2026, 17:32 UTC

1 34186U 92072S   26056.73066013  .00002618  00000-0  39319-2 0  9991
2 34186   6.3923 223.6994 6801893  56.4956 350.9606  2.82508010   939

Sigue ARIANE 42P+ DEB en tiempo real con AllMySat

Download on the App Store